Regional Weather Roundup
Issued by NWS

Home | Current Version | Previous Version | Text Only | Print | Product List | Glossary On
Versions: 1 2 3 4 5 6 7 8 9 10 11 12 13 14 15 16 17 18 19 20 21 22 23 24 25 26 27 28 29 30 31 32 33 34 35 36 37 38 39 40 41 42 43 44 45 46 47 48 49 50
284
ASUS43 KMKX 280611
RWRWI

WISCONSIN REGIONAL WEATHER ROUNDUP
NATIONAL WEATHER SERVICE MILWAUKEE/SULLIVAN WI
100 AM CDT SUN MAY 28 2017

NOTE: "FAIR" INDICATES FEW OR NO CLOUDS BELOW 12,000 FEET WITH NO
SIGNIFICANT WEATHER AND/OR OBSTRUCTIONS TO VISIBILITY.

WIZ001-002-006>008-014>016-023>028-280700-
NORTHWEST WISCONSIN

CITY           SKY/WX    TMP DP  RH WIND       PRES   REMARKS
SUPERIOR ARPT  NOT AVBL
ASHLAND        CLOUDY    59  47  64 SW8       29.76F
6HR MIN TEMP:  59; 6HR MAX TEMP:  73;

HAYWARD        CLOUDY    57  50  77 SW3       29.79F
6HR MIN TEMP:  55; 6HR MAX TEMP:  70;

SIREN          CLOUDY    61  49  64 CALM      29.78F
6HR MIN TEMP:  60; 6HR MAX TEMP:  70;

CUMBERLAND     CLOUDY    54  48  82 CALM      29.80F
RICE LAKE      CLOUDY    57  50  77 CALM      29.82F
6HR MIN TEMP:  55; 6HR MAX TEMP:  68;

CHETEK         CLOUDY    55  50  83 CALM      29.80F
6HR MIN TEMP:  53; 6HR MAX TEMP:  66;

LADYSMITH      CLOUDY    57  50  79 CALM      29.82F
6HR MIN TEMP:  56; 6HR MAX TEMP:  67;

EAU CLAIRE     CLOUDY    55  51  86 CALM      29.79F
6HR MIN TEMP:  53; 6HR MAX TEMP:  68;

MENOMONIE      CLOUDY    56  50  81 CALM      29.81F
6HR MIN TEMP:  55; 6HR MAX TEMP:  66;

NEW RICHMOND   CLOUDY    58  47  65 S6        29.80F
6HR MIN TEMP:  57; 6HR MAX TEMP:  67;

OSCEOLA        CLOUDY    63  47  55 S7        29.81F
6HR MIN TEMP:  61; 6HR MAX TEMP:  72;

$$

WIZ003>005-009-010-017-018-280700-
NORTH CENTRAL WISCONSIN

CITY           SKY/WX    TMP DP  RH WIND       PRES   REMARKS
MANITOWISH WTR CLOUDY    56  52  84 W6        29.81S
6HR MIN TEMP:  54; 6HR MAX TEMP:  66;

ARBOR VITAE    CLOUDY    59  51  72 CALM      29.80F
6HR MIN TEMP:  59; 6HR MAX TEMP:  67;

WOODRUFF       CLOUDY    59  51  72 CALM      29.80F
6HR MIN TEMP:  59; 6HR MAX TEMP:  67;

RHINELANDER    PTCLDY    54  49  83 W3        29.82F
6HR MIN TEMP:  54; 6HR MAX TEMP:  68;

EAGLE RIVER    CLOUDY    51  46  82 CALM      29.81F
6HR MIN TEMP:  50; 6HR MAX TEMP:  66;

LAND O LAKES   CLOUDY    53  49  89 CALM      29.82F
6HR MIN TEMP:  52; 6HR MAX TEMP:  68;

PHILLIPS       CLOUDY    56  50  81 CALM      29.81S
6HR MIN TEMP:  56; 6HR MAX TEMP:  66;

TOMAHAWK       CLOUDY    49  47  94 CALM      29.82S
6HR MIN TEMP:  49; 6HR MAX TEMP:  66;

MEDFORD        CLOUDY    55  50  81 CALM      29.82S
6HR MIN TEMP:  55; 6HR MAX TEMP:  65;

MERRILL        CLOUDY    57  52  84 CALM      29.82F
6HR MIN TEMP:  57; 6HR MAX TEMP:  67;

$$

WIZ029-030-035-036-043>047-280700-
CENTRAL WISCONSIN

CITY           SKY/WX    TMP DP  RH WIND       PRES   REMARKS
WAUSAU         CLOUDY    60  52  74 NW5       29.80F
6HR MIN TEMP:  59; 6HR MAX TEMP:  67; 6HR PCP: TRACE;

MOSINEE        CLOUDY    57  52  82 W5        29.82F
MARSHFIELD     CLOUDY    57  52  83 NW3       29.81F
6HR MIN TEMP:  57; 6HR MAX TEMP:  66; 6HR PCP: TRACE;

STEVENS POINT  CLOUDY    55  55  99 CALM      29.82S
6HR MIN TEMP:  55; 6HR MAX TEMP:  67;

WAUPACA        CLOUDY    64  52  64 CALM      29.81F
6HR MIN TEMP:  64; 6HR MAX TEMP:  74;

WAUTOMA        CLOUDY    61  53  75 CALM      29.81F
6HR MIN TEMP:  61; 6HR MAX TEMP:  72;

WISC RAPIDS    CLOUDY    57  56  96 CALM      29.82F
6HR MIN TEMP:  57; 6HR MAX TEMP:  70; 6HR PCP:  0.02;

CAMP DOUGLAS   CLOUDY    56  54  94 CALM      29.81F
6HR MIN TEMP:  55; 6HR MAX TEMP:  68; 6HR PCP: TRACE;

$$

WIZ011>013-019>022-031-037>040-048>050-280700-
NORTHEAST WISCONSIN

CITY           SKY/WX    TMP DP  RH WIND       PRES   REMARKS
ANTIGO         CLOUDY    58  51  80 W3        29.82S
6HR MIN TEMP:  58; 6HR MAX TEMP:  65;

SHAWANO        CLOUDY    64  51  62 W3        29.80S
6HR MIN TEMP:  64; 6HR MAX TEMP:  75;

OCONTO         MOCLDY    55  54  95 CALM      29.79S
6HR MIN TEMP:  55; 6HR MAX TEMP:  72;

STURGEON BAY   CLOUDY    60  54  80 SW5       29.80F
6HR MIN TEMP:  57; 6HR MAX TEMP:  64;

GREEN BAY      CLOUDY    62  57  83 CALM      29.81S
6HR MIN TEMP:  60; 6HR MAX TEMP:  73;

MANITOWOC      CLOUDY    62  55  77 W3        29.81F
6HR MIN TEMP:  58; 6HR MAX TEMP:  65;

APPLETON       CLOUDY    61  50  67 CALM      29.80F
CLINTONVILLE   CLOUDY    63  50  63 CALM      29.81S
OSHKOSH        CLOUDY    62  56  80 CALM      29.80F
6HR MIN TEMP:  62; 6HR MAX TEMP:  74; 6HR PCP: TRACE;

$$

WIZ032>034-041-042-053>061-280700-
SOUTHWEST WISCONSIN

CITY           SKY/WX    TMP DP  RH WIND       PRES   REMARKS
LA CROSSE      PTCLDY    57  56  96 CALM      29.82S
6HR MIN TEMP:  56; 6HR MAX TEMP:  66; 6HR PCP:  0.04;

SPARTA         CLOUDY    55  55 100 CALM      29.83S
6HR MIN TEMP:  54; 6HR MAX TEMP:  67;

VIROQUA        CLOUDY    58  53  81 CALM      29.83S
6HR MIN TEMP:  58; 6HR MAX TEMP:  67;

BOSCOBEL       CLOUDY    60  58  92 CALM      29.83R
6HR MIN TEMP:  60; 6HR MAX TEMP:  69; 6HR PCP:  0.03;

PRAIRIE DU CHI CLOUDY    60  56  87 CALM      29.83S
6HR MIN TEMP:  60; 6HR MAX TEMP:  67; 6HR PCP:  0.02;

PLATTEVILLE    MOCLDY    61  61 100 CALM      29.82S
6HR MIN TEMP:  61; 6HR MAX TEMP:  70; 6HR PCP:  0.05;

$$

WIZ056-057-062-063-064-067-068-280700-
SOUTH CENTRAL WISCONSIN

CITY           SKY/WX    TMP DP  RH WIND       PRES   REMARKS
REEDSBURG      CLOUDY    58  57  99 CALM      29.81S
6HR MIN TEMP:  58; 6HR MAX TEMP:  70;

BARABOO/DELLS  CLOUDY    59  53  83 CALM      29.82R
6HR MIN TEMP:  58; 6HR MAX TEMP:  69;

LONE ROCK      CLOUDY    61  58  90 W5        29.82R
6HR MIN TEMP:  61; 6HR MAX TEMP:  71; 6HR PCP:  0.03;

MINERAL POINT  CLOUDY    61  61 100 CALM      29.82S
MADISON        CLOUDY    64  55  72 CALM      29.80F
6HR MIN TEMP:  64; 6HR MAX TEMP:  72; 6HR PCP: TRACE;

MIDDLETON      CLOUDY    65  55  72 CALM      29.82S
6HR MIN TEMP:  64; 6HR MAX TEMP:  71;

WATERTOWN      CLOUDY    62  61  96 CALM      29.81S
6HR MIN TEMP:  62; 6HR MAX TEMP:  72;

MONROE         CLOUDY    64  55  72 NE3       29.81S
JANESVILLE     CLOUDY    64  61  88 CALM      29.80F
$$

WIZ051-052-058>065-066-070>072-280700-
SOUTHEAST WISCONSIN

CITY           SKY/WX    TMP DP  RH WIND       PRES   REMARKS
MILWAUKEE      CLOUDY    65  55  70 CALM      29.81F
6HR MIN TEMP:  63; 6HR MAX TEMP:  66;

WAUKESHA       CLOUDY    61  54  77 CALM      29.82F
MILWAUKEE/TIMM   N/A     63  52  67 CALM      29.82F
RACINE         CLOUDY    61  51  70 S3        29.83F
6HR MIN TEMP:  60; 6HR MAX TEMP:  65;

KENOSHA        CLOUDY    60  53  77 CALM      29.82F
6HR MIN TEMP:  60; 6HR MAX TEMP:  67;

FOND DU LAC    LGT RAIN  64  54  69 E3        29.82S
6HR MIN TEMP:  64; 6HR MAX TEMP:  75; 6HR PCP: TRACE;

SHEBOYGAN      CLOUDY    61  57  87 W5        29.81F
6HR MIN TEMP:  58; 6HR MAX TEMP:  67; 6HR PCP: TRACE;

WEST BEND      CLOUDY    61  55  82 CALM      29.81F
JUNEAU         CLOUDY    63  58  83 CALM      29.82F
6HR MIN TEMP:  63; 6HR MAX TEMP:  73;

$$

LSZ147-162-280700-
LAKE SUPERIOR

STATION/POSITION TIME  TEMP    WIND        PRES    WAVE
                       AIR SEA DIR/SP/G            HT/PER
                 (UTC) (F)     (DEG/KT/KT) (MB)    (FT/S)
W MID LAKE BUOY  0450   44 37  180/  8/ 10 1007.8F   0
DEVILS ISLAND    0500   65     200/ 10/ 13 1007.2F
PORT WING        0530   63     180/  6/  8 1007.5F
SAXON HARBOR     0540   61     190/  5/  8 1007.8F
$$

LMZ867-665-643>646-280700-
LAKE MICHIGAN

STATION/POSITION TIME  TEMP    WIND        PRES    WAVE
                       AIR SEA DIR/SP/G            HT/PER
                 (UTC) (F)     (DEG/KT/KT) (MB)    (FT/S)
CHAMBERS ISLAND  0540   59     190/  3/  5 1008.1F
N MID L



USA.gov is the U.S. government's official web portal to all federal, state and local government web resources and services.